Location: Stonelick Lake State Park
(39.2170°N, 84.0850°W)
Time: 03:50:32
(UTC-04:00)

Amateur Radio Satellites - All Passes

Search period start: 26 April 2017 03:20
Search period end: 27 April 2017 03:20
Location: Stonelick Lake State Park, 39.2170°N, 84.0850°W

Satellite Date Start Highest point End Downlink Frequencies (MHz)
Time Altitude Azimuth
BEESAT 26 Apr 03:33:47 03:38:30 67° 74° (ENE) 03:43:13 436.000
MOZHAYETS 4 26 Apr 03:35:40 03:39:38 31° 70° (ENE) 03:43:38
BUGSAT 1 26 Apr 03:37:43 03:39:31 13° 295° (WNW) 03:41:17 437.445
ITAMSAT 1 26 Apr 04:13:12 04:17:33 27° 96° (E) 04:21:53 435.822/435.867
ITUPSAT 1 26 Apr 04:14:01 04:18:36 47° 260° (W) 04:23:12 437.325
Gurwin Techsat 1B 26 Apr 04:23:06 04:27:57 37° 291° (WNW) 04:32:47 435.225
CUBESAT XI-V 26 Apr 04:25:18 04:28:27 18° 65° (ENE) 04:31:37 437.345
Oscar 19 26 Apr 04:29:10 04:32:49 20° 296° (WNW) 04:36:27 437.125/150
NO-84 26 Apr 04:49:11 04:51:38 26° 231° (SW) 04:54:04 435.350 FM
YUBILEINY 26 Apr 04:58:01 05:06:16 50° 89° (E) 05:14:32 435.215
PCSat 26 Apr 05:00:54 05:04:51 20° 313° (NW) 05:08:49 145.827
AO-7 26 Apr 05:03:12 05:11:26 62° 104° (ESE) 05:19:39 .
MOZHAYETS 4 26 Apr 05:13:07 05:16:47 24° 265° (W) 05:20:28
BEESAT 26 Apr 05:15:01 05:16:41 12° 269° (W) 05:18:22 436.000
KKS-1 26 Apr 05:29:52 05:34:20 85° 253° (WSW) 05:38:51 437.445
ITAMSAT 1 26 Apr 05:52:22 05:57:01 35° 292° (WNW) 06:01:39 435.822/435.867
CUBESAT XI-V 26 Apr 06:01:02 06:05:27 44° 262° (W) 06:09:55 437.345
STARS 26 Apr 06:03:49 06:08:14 84° 260° (W) 06:12:40 437.465
SO-50 26 Apr 06:11:12 06:12:40 11° 107° (ESE) 06:14:07 436.795
XW-2D 26 Apr 06:51:21 06:53:45 16° 93° (E) 06:56:09 145.860 - 145.880
CUTE-I 26 Apr 06:55:22 06:59:08 19° 93° (E) 07:02:52 437.470
YUBILEINY 26 Apr 06:55:37 07:03:16 34° 288° (WNW) 07:11:00 435.215
AO-7 26 Apr 06:56:46 07:03:41 31° 302° (WNW) 07:10:35 .
XW-2B 26 Apr 06:58:00 07:00:43 18° 94° (E) 07:03:26 145.730 - 145.750
LilacSat-2 26 Apr 07:07:41 07:10:57 26° 96° (E) 07:14:13 437.200
KAITUO 1B 26 Apr 07:09:11 07:12:01 20° 95° (E) 07:14:51 145.475/437.950
XW-2C 26 Apr 07:09:27 07:12:40 26° 96° (E) 07:15:54 145.795 - 145.815
RS-15 26 Apr 07:15:31 07:25:59 37° 105° (ESE) 07:36:42 29.354- 29.394
M-CUBED/EXP-1 PRIME 26 Apr 07:21:33 07:25:43 35° 65° (ENE) 07:29:58 437.505
DOVE 4 26 Apr 07:31:39 07:36:19 81° 102° (ESE) 07:40:39 437.250
XW-2F 26 Apr 07:35:05 07:38:49 53° 100° (E) 07:42:33 145.980 - 146.000
SO-50 26 Apr 07:47:54 07:52:31 73° 303° (WNW) 07:57:06 436.795
NUDT-PHONESAT 26 Apr 07:48:40 07:52:23 65° 102° (ESE) 07:56:04 437.300
STRAND 1 26 Apr 07:56:16 08:01:17 61° 73° (ENE) 08:06:19 437.568
XW-2A 26 Apr 08:10:10 08:12:04 14° 94° (E) 08:13:58 145.665 - 145.685
XW-2D 26 Apr 08:24:36 08:28:00 31° 288° (WNW) 08:31:24 145.860 - 145.880
Tancredo 1 26 Apr 08:28:30 08:30:53 21° 132° (SE) 08:33:18 437.200
XW-2B 26 Apr 08:31:39 08:34:54 27° 289° (WNW) 08:38:09 145.730 - 145.750
CUTE-I 26 Apr 08:34:19 08:39:25 50° 289° (WNW) 08:44:31 437.470
CUBEBUG 2 26 Apr 08:35:34 08:37:58 15° 93° (E) 08:40:22 437.445
LilacSat-2 26 Apr 08:42:13 08:45:04 20° 291° (WNW) 08:47:55 437.200
HO-68 26 Apr 08:42:40 08:49:34 47° 100° (E) 08:56:26 435.675
KAITUO 1B 26 Apr 08:42:52 08:45:58 25° 290° (WNW) 08:49:05 145.475/437.950
XW-2C 26 Apr 08:43:54 08:46:42 20° 291° (WNW) 08:49:30 145.795 - 145.815
ISS 26 Apr 08:44:40 08:47:22 24° 133° (SE) 08:50:03 437.550
M-CUBED/EXP-1 PRIME 26 Apr 08:56:26 09:00:08 24° 261° (W) 09:03:56 437.505
AAUSAT CUBESAT 2 26 Apr 09:07:17 09:10:41 24° 95° (E) 09:14:04 437.432
CUTE 1.7 + AOD 2 26 Apr 09:11:10 09:15:29 89° 271° (W) 09:19:47 437.475
XW-2F 26 Apr 09:11:46 09:12:28 10° 295° (WNW) 09:13:10 145.980 - 146.000
ZACube-1 26 Apr 09:20:20 09:23:03 17° 93° (E) 09:25:48 437.345
FO-29 26 Apr 09:25:31 09:27:39 12° 60° (ENE) 09:29:42 435.910
RS-15 26 Apr 09:25:44 09:37:43 66° 307° (NW) 09:50:05 29.354- 29.394
AO-73 26 Apr 09:27:24 09:30:20 18° 94° (E) 09:33:16 145.935
SEEDS 26 Apr 09:32:22 09:36:38 79° 283° (WNW) 09:40:53 437.485
SO-50 26 Apr 09:32:24 09:33:46 11° 321° (NW) 09:35:08 436.795
STRAND 1 26 Apr 09:38:04 09:40:50 15° 269° (W) 09:43:37 437.568
XW-2A 26 Apr 09:42:01 09:44:50 26° 288° (WNW) 09:47:41 145.665 - 145.685
Oscar 11 26 Apr 09:43:23 09:46:52 23° 95° (E) 09:50:19 .
UWE-3 26 Apr 09:58:35 10:02:47 84° 102° (ESE) 10:07:03 435.000/436.395/437.385
Tancredo 1 26 Apr 10:03:45 10:06:39 35° 328° (NNW) 10:09:33 437.200
PRISM 26 Apr 10:05:02 10:08:56 40° 72° (ENE) 10:12:51 437.425
TIGRISAT 26 Apr 10:07:20 10:10:52 24° 69° (ENE) 10:14:21 435.000
CUBEBUG 2 26 Apr 10:10:51 10:14:45 40° 287° (WNW) 10:18:42 437.445
ISS 26 Apr 10:20:43 10:23:43 34° 329° (NNW) 10:26:45 437.550
UNISAT 6 26 Apr 10:27:39 10:31:50 44° 72° (ENE) 10:35:56 437.425
HO-68 26 Apr 10:30:48 10:37:02 33° 297° (WNW) 10:43:16 435.675
O/OREOS (USA 219) 26 Apr 10:39:01 10:42:52 27° 103° (ESE) 10:46:45 437.305
AAUSAT CUBESAT 2 26 Apr 10:42:34 10:46:05 26° 290° (WNW) 10:49:34 437.432
OBJECT BX 26 Apr 10:45:52 10:48:47 22° 95° (E) 10:51:40 145.990 - 145.960
ZACube-1 26 Apr 10:55:33 10:59:27 38° 288° (WNW) 11:03:26 437.345
AO-73 26 Apr 11:02:48 11:06:37 35° 288° (WNW) 11:10:32 145.935
FO-29 26 Apr 11:05:36 11:12:05 84° 73° (ENE) 11:17:48 435.910
AIST 2D 26 Apr 11:14:44 11:16:40 14° 68° (ENE) 11:18:35 435.315
Oscar 11 26 Apr 11:19:12 11:22:57 29° 290° (WNW) 11:26:42 .
DELFI C3 26 Apr 11:30:40 11:34:39 70° 284° (WNW) 11:38:37 145.870
PRISM 26 Apr 11:41:56 11:44:22 15° 267° (W) 11:46:49 437.425
Tancredo 1 26 Apr 11:42:26 11:43:16 11° 347° (NNW) 11:44:06 437.200
EO-79 26 Apr 11:43:32 11:46:43 21° 68° (ENE) 11:49:55 145.935-145.965
RS-15 26 Apr 11:43:37 11:53:17 26° 335° (NNW) 12:03:02 29.354- 29.394
TIGRISAT 26 Apr 11:43:40 11:47:26 28° 264° (W) 11:51:09 435.000
DUCHIFAT 1 26 Apr 11:46:25 11:49:21 19° 67° (ENE) 11:52:16 145.980
LO-87 26 Apr 11:51:41 11:54:10 18° 94° (E) 11:56:37 145.935 - 145.965
ISS 26 Apr 11:59:51 12:00:58 11° 348° (NNW) 12:02:04 437.550
PCSat 26 Apr 12:04:40 12:09:48 41° 55° (NE) 12:14:54 145.827
UNISAT 6 26 Apr 12:06:08 12:08:43 15° 267° (W) 12:11:17 437.425
O/OREOS (USA 219) 26 Apr 12:18:14 12:22:11 28° 299° (WNW) 12:26:10 437.305
OBJECT BX 26 Apr 12:19:32 12:22:20 21° 291° (WNW) 12:25:09 145.990 - 145.960
POLYITAN 1 26 Apr 12:21:33 12:25:41 57° 74° (ENE) 12:29:49 437.675
QB50P2 26 Apr 12:28:02 12:32:15 75° 75° (ENE) 12:36:28 145.880/145.840
ESTCUBE 1 26 Apr 12:37:52 12:42:06 37° 98° (E) 12:46:18 437.505/2401.250
AIST 2D 26 Apr 12:46:33 12:49:36 29° 263° (W) 12:52:42 435.315
BUGSAT 1 26 Apr 12:49:15 12:52:51 29° 71° (ENE) 12:56:27 437.445
NANOSAT C BR1 26 Apr 12:50:26 12:54:38 71° 258° (WSW) 12:58:50 145.865
VELOX 1 26 Apr 12:54:17 12:56:46 15° 92° (E) 12:59:15 145.980
FO-29 26 Apr 12:54:59 12:57:34 13° 269° (W) 13:00:02 435.910
EO-79 26 Apr 13:18:34 13:22:18 30° 263° (W) 13:26:02 145.935-145.965
DUCHIFAT 1 26 Apr 13:20:55 13:24:45 34° 262° (W) 13:28:36 145.980
LO-87 26 Apr 13:24:39 13:27:35 24° 289° (WNW) 13:30:29 145.935 - 145.965
AO-85 26 Apr 13:28:05 13:32:23 64° 119° (ESE) 13:36:26 145.980
ISS 26 Apr 13:37:58 13:38:38 10° 9° (N) 13:39:18 437.550
DX 1 26 Apr 13:46:48 13:50:04 21° 95° (E) 13:53:19 434.975-435.025
PCSat 26 Apr 13:48:29 13:52:58 27° 252° (WSW) 13:57:26 145.827
SPROUT 26 Apr 13:58:25 14:02:40 76° 102° (ESE) 14:06:54 437.525
POLYITAN 1 26 Apr 14:00:42 14:01:47 11° 269° (W) 14:02:53 437.675
50 SAT 26 Apr 14:00:48 14:04:11 46° 100° (E) 14:07:31 437.505
RS-15 26 Apr 14:03:19 14:12:02 21° 12° (NNE) 14:20:34 29.354- 29.394
Gurwin Techsat 1B 26 Apr 14:03:24 14:08:16 38° 69° (ENE) 14:13:10 435.225
Oscar 19 26 Apr 14:04:27 14:09:33 67° 74° (ENE) 14:14:42 437.125/150
AO-7 26 Apr 14:12:51 14:17:34 17° 50° (NE) 14:22:17 .
BEESAT 3 26 Apr 14:13:54 14:17:24 32° 114° (ESE) 14:20:59 437.485
BEESAT 2 26 Apr 14:14:27 14:15:45 11° 108° (ESE) 14:17:04 435.950
ESTCUBE 1 26 Apr 14:15:18 14:18:37 20° 294° (WNW) 14:21:56 437.505/2401.250
BUGSAT 1 26 Apr 14:25:04 14:28:13 21° 265° (W) 14:31:20 437.445
VELOX 1 26 Apr 14:29:12 14:33:28 47° 288° (WNW) 14:37:41 145.980
SO-50 26 Apr 14:42:19 14:43:23 11° 38° (NE) 14:44:28 436.795
UKube-1 26 Apr 14:49:43 14:54:03 74° 103° (ESE) 14:58:20 .
Tancredo 1 26 Apr 14:54:34 14:57:09 23° 27° (NNE) 14:59:44 437.200
YUBILEINY 26 Apr 15:10:00 15:16:39 23° 67° (ENE) 15:23:16 435.215
AO-85 26 Apr 15:10:53 15:13:06 14° 315° (NW) 15:15:17 145.980
ISS 26 Apr 15:13:07 15:15:58 27° 28° (NNE) 15:18:49 437.550
DX 1 26 Apr 15:22:24 15:26:17 32° 290° (WNW) 15:30:09 434.975-435.025
ITAMSAT 1 26 Apr 15:29:57 15:34:43 38° 69° (ENE) 15:39:29 435.822/435.867
BEESAT 26 Apr 15:35:54 15:39:10 18° 93° (E) 15:42:25 436.000
Gurwin Techsat 1B 26 Apr 15:43:56 15:48:17 25° 265° (W) 15:52:39 435.225
Oscar 19 26 Apr 15:46:48 15:49:19 14° 269° (W) 15:51:51 437.125/150
BEESAT 2 26 Apr 15:49:06 15:52:59 56° 304° (NW) 15:56:57 435.950
BEESAT 3 26 Apr 15:51:55 15:55:02 22° 311° (NW) 15:58:12 437.485
AO-7 26 Apr 16:00:43 16:08:58 75° 69° (ENE) 16:17:14 .
ITUPSAT 1 26 Apr 16:15:17 16:19:53 46° 100° (E) 16:24:28 437.325
RS-15 26 Apr 16:17:18 16:28:59 46° 44° (NE) 16:40:07 29.354- 29.394
SO-50 26 Apr 16:20:09 16:24:40 72° 57° (ENE) 16:29:09 436.795
UKube-1 26 Apr 16:29:08 16:29:26 10° 299° (WNW) 16:29:44 .
Tancredo 1 26 Apr 16:30:14 16:33:08 37° 224° (SW) 16:36:02 437.200
ISS 26 Apr 16:49:30 16:52:27 33° 225° (SW) 16:55:25 437.550
YUBILEINY 26 Apr 17:05:32 17:14:16 74° 266° (W) 17:23:01 435.215
MOZHAYETS 4 26 Apr 17:07:50 17:12:29 84° 103° (ESE) 17:17:06
ITAMSAT 1 26 Apr 17:10:03 17:14:15 25° 265° (W) 17:18:28 435.822/435.867
BEESAT 26 Apr 17:12:36 17:17:07 44° 289° (WNW) 17:21:38 436.000
KKS-1 26 Apr 17:22:43 17:25:55 19° 94° (E) 17:29:05 437.445
LilacSat-2 26 Apr 17:50:22 17:51:45 12° 65° (ENE) 17:53:08 437.200
XW-2C 26 Apr 17:51:38 17:52:54 11° 65° (ENE) 17:54:10 145.795 - 145.815
ITUPSAT 1 26 Apr 17:54:04 17:57:20 19° 295° (WNW) 18:00:38 437.325
STARS 26 Apr 17:55:07 17:58:10 18° 94° (E) 18:01:12 437.465
AO-7 26 Apr 17:56:22 18:02:25 22° 267° (W) 18:08:29 .
CUBESAT XI-V 26 Apr 17:58:17 18:02:52 48° 99° (E) 18:07:24 437.345
SO-50 26 Apr 18:03:16 18:04:29 11° 253° (WSW) 18:05:43 436.795
XW-2F 26 Apr 18:15:29 18:18:21 21° 69° (ENE) 18:21:13 145.980 - 146.000
CUTE-I 26 Apr 18:15:52 18:20:26 30° 67° (ENE) 18:25:00 437.470
NUDT-PHONESAT 26 Apr 18:27:19 18:30:18 24° 70° (ENE) 18:33:17 437.300
RS-15 26 Apr 18:30:05 18:41:53 59° 248° (WSW) 18:53:06 29.354- 29.394
DOVE 4 26 Apr 18:34:31 18:39:48 73° 75° (ENE) 18:45:01 437.250
KKS-1 26 Apr 18:58:30 19:02:33 36° 290° (WNW) 19:06:35 437.445
XW-2D 26 Apr 19:04:03 19:07:46 82° 257° (WSW) 19:11:32 145.860 - 145.880
YUBILEINY 26 Apr 19:06:23 19:09:25 12° 285° (WNW) 19:12:27 435.215
HO-68 26 Apr 19:10:36 19:16:43 32° 62° (ENE) 19:22:52 435.675
XW-2B 26 Apr 19:11:01 19:14:43 68° 259° (WSW) 19:18:28 145.730 - 145.750
KAITUO 1B 26 Apr 19:20:57 19:24:35 63° 259° (W) 19:28:16 145.475/437.950
LilacSat-2 26 Apr 19:22:00 19:25:36 45° 261° (W) 19:29:14 437.200
XW-2C 26 Apr 19:23:04 19:26:39 45° 261° (W) 19:30:17 145.795 - 145.815
STARS 26 Apr 19:30:36 19:34:37 36° 289° (WNW) 19:38:35 437.465
CUBEBUG 2 26 Apr 19:33:45 19:35:27 12° 65° (ENE) 19:37:07 437.445
CUBESAT XI-V 26 Apr 19:36:47 19:39:49 17° 295° (WNW) 19:42:50 437.345
XW-2F 26 Apr 19:49:24 19:52:22 22° 264° (W) 19:55:22 145.980 - 146.000
CUTE-I 26 Apr 19:55:33 20:00:21 34° 263° (W) 20:05:10 437.470
AAUSAT CUBESAT 2 26 Apr 19:57:22 19:59:37 14° 65° (ENE) 20:01:51 437.432
NUDT-PHONESAT 26 Apr 20:01:28 20:04:10 19° 266° (W) 20:06:52 437.300
CUTE 1.7 + AOD 2 26 Apr 20:02:23 20:06:28 54° 75° (ENE) 20:10:36 437.475
NO-84 26 Apr 20:04:43 20:08:22 46° 132° (SE) 20:11:44 435.350 FM
STRAND 1 26 Apr 20:08:30 20:12:27 22° 94° (E) 20:16:24 437.568
JUGNU 26 Apr 20:08:31 20:09:58 11° 181° (S) 20:11:24 437.505
XW-2A 26 Apr 20:11:28 20:14:49 76° 77° (ENE) 20:18:10 145.665 - 145.685
DOVE 4 26 Apr 20:15:24 20:17:53 13° 270° (W) 20:20:22 437.250
ZACube-1 26 Apr 20:16:37 20:18:07 12° 64° (ENE) 20:19:36 437.345
SEEDS 26 Apr 20:22:30 20:26:36 59° 75° (ENE) 20:30:45 437.485
AO-73 26 Apr 20:23:12 20:24:59 13° 65° (ENE) 20:26:47 145.935
M-CUBED/EXP-1 PRIME 26 Apr 20:36:12 20:39:40 26° 100° (E) 20:42:54 437.505
Oscar 11 26 Apr 20:37:53 20:40:32 16° 66° (ENE) 20:43:11 .
O/OREOS (USA 219) 26 Apr 20:49:25 20:53:49 44° 64° (ENE) 20:58:09 437.305
UWE-3 26 Apr 20:54:14 20:58:25 56° 75° (ENE) 21:02:33 435.000/436.395/437.385
HO-68 26 Apr 20:57:18 21:04:08 49° 260° (W) 21:11:03 435.675
CUBEBUG 2 26 Apr 21:07:15 21:11:35 59° 259° (W) 21:15:48 437.445
AAUSAT CUBESAT 2 26 Apr 21:30:41 21:34:39 45° 261° (W) 21:38:40 437.432
SRMSAT 26 Apr 21:32:10 21:32:37 10° 174° (S) 21:33:02 437.500
CUTE 1.7 + AOD 2 26 Apr 21:41:10 21:42:38 12° 270° (W) 21:44:06 437.475
NO-84 26 Apr 21:43:18 21:46:03 20° 327° (NNW) 21:48:38 435.350 FM
STRAND 1 26 Apr 21:47:00 21:51:45 40° 290° (WNW) 21:56:30 437.568
ZACube-1 26 Apr 21:49:46 21:53:55 57° 260° (W) 21:58:01 437.345
AO-73 26 Apr 21:56:41 22:00:47 52° 260° (W) 22:04:51 145.935
AO-85 26 Apr 22:00:06 22:03:48 36° 53° (NE) 22:07:38 145.980
SEEDS 26 Apr 22:01:55 22:02:39 10° 270° (W) 22:03:24 437.485
M-CUBED/EXP-1 PRIME 26 Apr 22:10:37 22:13:59 24° 298° (WNW) 22:17:09 437.505
Oscar 11 26 Apr 22:12:13 22:16:18 42° 261° (W) 22:20:25 .
DELFI C3 26 Apr 22:14:33 22:18:25 53° 74° (ENE) 22:22:20 145.870
O/OREOS (USA 219) 26 Apr 22:29:57 22:32:49 17° 260° (W) 22:35:39 437.305
BEESAT 3 26 Apr 22:32:03 22:34:39 16° 46° (NE) 22:37:15 437.485
UWE-3 26 Apr 22:33:59 22:35:11 11° 269° (W) 22:36:22 435.000/436.395/437.385
OBJECT BX 26 Apr 22:55:12 22:58:47 58° 260° (W) 23:02:22 145.990 - 145.960
SRMSAT 26 Apr 23:19:34 23:20:49 11° 184° (S) 23:22:05 437.500
PRISM 26 Apr 23:22:11 23:26:21 79° 103° (ESE) 23:30:27 437.425
TIGRISAT 26 Apr 23:35:08 23:39:22 61° 101° (E) 23:43:39 435.000
ESTCUBE 1 26 Apr 23:36:20 23:40:15 30° 70° (ENE) 23:44:13 437.505/2401.250
AO-85 26 Apr 23:41:08 23:43:57 18° 248° (WSW) 23:46:50 145.980
VELOX 1 26 Apr 23:51:20 23:53:16 13° 63° (ENE) 23:55:12 145.980
DELFI C3 26 Apr 23:52:51 23:53:30 10° 270° (W) 23:54:10 145.870
UNISAT 6 26 Apr 23:56:24 00:00:40 69° 285° (WNW) 00:04:59 437.425
LO-87 26 Apr 23:58:36 00:02:14 77° 258° (WSW) 00:05:53 145.935 - 145.965
FO-29 27 Apr 00:00:17 00:05:31 80° 103° (ESE) 00:11:08 435.910
BEESAT 2 27 Apr 00:07:35 00:11:36 57° 57° (ENE) 00:15:33 435.950
BEESAT 3 27 Apr 00:08:37 00:12:31 49° 243° (WSW) 00:16:21 437.485
AIST 2D 27 Apr 00:12:47 00:15:23 19° 95° (E) 00:17:59 435.315
QB50P2 27 Apr 00:15:39 00:17:35 13° 92° (E) 00:19:30 145.880/145.840
50 SAT 27 Apr 00:33:31 00:35:38 15° 68° (ENE) 00:37:46 437.505
NANOSAT C BR1 27 Apr 00:36:32 00:39:32 19° 94° (E) 00:42:30 145.865
DX 1 27 Apr 00:41:46 00:44:35 17° 65° (ENE) 00:47:23 434.975-435.025
SPROUT 27 Apr 00:50:21 00:54:28 48° 74° (ENE) 00:58:35 437.525
EO-79 27 Apr 01:03:38 01:07:38 43° 99° (E) 01:11:38 145.935-145.965
DUCHIFAT 1 27 Apr 01:05:33 01:09:25 36° 98° (E) 01:13:16 145.980
ESTCUBE 1 27 Apr 01:13:24 01:17:02 24° 265° (W) 01:20:41 437.505/2401.250
TIGRISAT 27 Apr 01:14:02 01:15:33 12° 296° (WNW) 01:17:04 435.000
VELOX 1 27 Apr 01:24:45 01:29:09 62° 259° (WSW) 01:33:36 145.980
UKube-1 27 Apr 01:42:45 01:46:57 53° 73° (ENE) 01:51:11 .
POLYITAN 1 27 Apr 01:42:51 01:47:00 63° 286° (WNW) 01:51:09 437.675
AIST 2D 27 Apr 01:45:46 01:48:32 22° 289° (WNW) 01:51:17 435.315
BEESAT 2 27 Apr 01:47:24 01:48:50 12° 252° (WSW) 01:50:17 435.950
FO-29 27 Apr 01:48:02 01:50:02 12° 299° (WNW) 01:52:04 435.910
QB50P2 27 Apr 01:49:34 01:53:37 48° 287° (WNW) 01:57:40 145.880/145.840
50 SAT 27 Apr 02:05:19 02:08:19 27° 263° (W) 02:11:22 437.505
BUGSAT 1 27 Apr 02:06:32 02:10:30 57° 100° (E) 02:14:26 437.445
NANOSAT C BR1 27 Apr 02:11:33 02:15:17 32° 289° (WNW) 02:19:01 145.865
DX 1 27 Apr 02:16:13 02:20:24 43° 261° (W) 02:24:35 434.975-435.025
Oscar 19 27 Apr 02:17:39 02:21:55 25° 95° (E) 02:26:11 437.125/150
Gurwin Techsat 1B 27 Apr 02:21:46 02:24:57 16° 92° (E) 02:28:09 435.225
SPROUT 27 Apr 02:28:33 02:30:37 13° 268° (W) 02:32:42 437.525
NO-84 27 Apr 02:40:28 02:42:29 17° 31° (NNE) 02:44:28 435.350 FM
EO-79 27 Apr 02:40:34 02:43:01 15° 295° (WNW) 02:45:29 145.935-145.965
BEESAT 27 Apr 02:41:26 02:44:49 20° 65° (ENE) 02:48:11 436.000
DUCHIFAT 1 27 Apr 02:42:01 02:44:48 18° 293° (WNW) 02:47:34 145.980
PCSat 27 Apr 02:45:04 02:50:11 45° 112° (ESE) 02:55:21 145.827
